sat.trackr.live / text

‹ back to catalog

STARLINK-34818

NORAD 65238 · 2025-179D

PAYLOAD ACTIVE UNKNOWN

§ Identity

Operator
Country
US
Launch date
2025-08-18
Launch site
AFWTR
Launch vehicle
Mass (kg)
RCS (m²)

Purposes: comms

External: N2YO · Heavens-Above · Gunter

§ Orbital elements

Epoch: 2026-05-25T01:45:28.950336Z

Period
95.64 min
Inclination
97.4504°
Eccentricity
0.0001493
Mean motion
15.05646660 rev/d
Perigee alt
548.5 km
Apogee alt
550.6 km
Semi-major
6,927.7 km
B*
-3.9304e-6
RAAN
187.9205°
Arg perigee
126.0333°
Mean anomaly
234.1032°
Rev number
4,304

§ Raw data

STARLINK-348181 65238U 25179D   26145.07325174 -.00000115  00000+0 -39304-5 0  99972 65238  97.4504 187.9205 0001493 126.0333 234.1032 15.05646660 43047

JSON: /api/v1/satellites/65238 · /tle

For live sub-satellite position, see the globe view (requires WebGL).

§ Visibility from observer

Set your observer location to see the next 7 days of passes ≥ 10°. The values pass through the URL so the page stays shareable.

No JS? Fill the form by hand. The geolocation button needs JavaScript.